TimeEDT,TemperatureF,Dew PointF,Humidity,Sea Level PressureIn,VisibilityMPH,Wind Direction,Wind SpeedMPH,Gust SpeedMPH,PrecipitationIn,Events,Conditions,WindDirDegrees,DateUTC
12:54 AM,16.0,-2.0,45,30.09,-9999.0,North,-9999.0,-,N/A,,Unknown,0,2014-03-27 04:54:00
1:54 AM,15.1,-2.9,45,30.11,-9999.0,North,-9999.0,-,N/A,,Unknown,0,2014-03-27 05:54:00
2:54 AM,14.0,-2.9,47,30.14,-9999.0,North,-9999.0,-,N/A,,Unknown,0,2014-03-27 06:54:00
3:54 AM,12.9,-2.9,49,30.16,-9999.0,North,-9999.0,-,N/A,,Unknown,0,2014-03-27 07:54:00
4:54 AM,12.9,-4.0,47,30.20,-9999.0,North,-9999.0,-,N/A,,Unknown,0,2014-03-27 08:54:00
5:54 AM,8.1,-2.0,64,30.25,-9999.0,North,-9999.0,-,N/A,,Unknown,0,2014-03-27 09:54:00
6:54 AM,5.0,-2.9,70,30.28,-9999.0,North,-9999.0,-,N/A,,Unknown,0,2014-03-27 10:54:00
7:54 AM,7.0,-2.9,64,30.30,-9999.0,North,-9999.0,-,N/A,,Unknown,0,2014-03-27 11:54:00
8:54 AM,12.9,-2.9,49,30.30,-9999.0,North,-9999.0,-,N/A,,Unknown,0,2014-03-27 12:54:00
9:54 AM,18.0,-2.9,40,30.30,-9999.0,North,-9999.0,-,N/A,,Unknown,0,2014-03-27 13:54:00
10:54 AM,23.0,-2.9,32,30.29,-9999.0,North,-9999.0,-,N/A,,Unknown,0,2014-03-27 14:54:00
11:54 AM,25.0,-2.9,30,30.28,-9999.0,North,-9999.0,-,N/A,,Unknown,0,2014-03-27 15:54:00
12:54 PM,27.0,-0.9,30,30.25,-9999.0,North,-9999.0,-,N/A,,Unknown,0,2014-03-27 16:54:00
1:54 PM,30.0,-0.9,27,30.22,-9999.0,North,-9999.0,-,N/A,,Unknown,0,2014-03-27 17:54:00
2:54 PM,32.0,-0.0,26,30.21,-9999.0,North,-9999.0,-,N/A,,Unknown,0,2014-03-27 18:54:00
3:54 PM,34.0,-0.9,23,30.20,-9999.0,North,-9999.0,-,N/A,,Unknown,0,2014-03-27 19:54:00
4:54 PM,34.0,1.0,25,30.21,-9999.0,North,-9999.0,-,N/A,,Unknown,0,2014-03-27 20:54:00
5:54 PM,34.0,1.9,26,30.22,-9999.0,North,-9999.0,-,N/A,,Unknown,0,2014-03-27 21:54:00
6:54 PM,33.1,5.0,31,30.20,-9999.0,North,-9999.0,-,N/A,,Unknown,0,2014-03-27 22:54:00
7:54 PM,33.1,5.0,31,30.20,-9999.0,North,-9999.0,-,N/A,,Unknown,0,2014-03-27 23:54:00
8:54 PM,32.0,5.0,32,30.19,-9999.0,North,-9999.0,-,N/A,,Unknown,0,2014-03-28 00:54:00
9:54 PM,33.1,6.1,32,30.18,-9999.0,North,-9999.0,-,N/A,,Unknown,0,2014-03-28 01:54:00
10:54 PM,33.1,7.0,34,30.17,-9999.0,North,-9999.0,-,N/A,,Unknown,0,2014-03-28 02:54:00
11:54 PM,32.0,9.0,38,30.14,-9999.0,North,-9999.0,-,N/A,,Unknown,0,2014-03-28 03:54:00